Imperial, CA

2:13 PM PST on November 11, 2019 (GMT -0800)
Imperial County

Weather History for KIPL - October, 2019

Change the Weather History Date:

Monday, October 14, 2019

  Actual Average Record
Temperature  
Mean Temperature 70 °F -  
Max Temperature 88 °F 90 °F 103 °F (1961)
Min Temperature 53 °F 61 °F 49 °F (1981)
Cooling Degree Days 5    
Growing Degree Days 20 (Base 50)    
Moisture  
Dew Point 41 °F    
Average Humidity 39    
Maximum Humidity 69    
Minimum Humidity 9    
Precipitation  
Precipitation 0.00 in - - ()
Sea Level Pressure  
Sea Level Pressure 29.81 in    
Wind  
Wind Speed 2 mph (NW)    
Max Wind Speed 12 mph    
Max Gust Speed -    
Visibility 10 miles    
Events      
Averages and records for this station are not official NWS values.
T = Trace of Precipitation, MM = Missing Value Source: NWS Daily Summary

Daily Weather History Graph

Daily Weather History Graph

Search for Another Location

Airport or City:

Astronomy

Oct. 14, 2019 Rise Set
Actual Time 6:45 AM PDT 6:10 PM PDT
Civil Twilight 6:20 AM PDT 6:35 PM PDT
Nautical Twilight 5:52 AM PDT 7:03 PM PDT
Astronomical Twilight 5:23 AM PDT 7:32 PM PDT
Moon 7:03 PM PDT (10/14) 7:22 AM PDT (10/14)
Length of Visible Light 12h 14m
Length of Day
11h 24m
Full, 99% of the Moon is Illuminated
Oct 14
Full
Oct 21
Last Quarter
Oct 27
New
Nov 4
First Quarter
Nov 12
Full

Hourly Weather History & Observations

Time (PDT) Temp. Dew Point Humidity Pressure Visibility Wind Dir Wind Speed Gust Speed Precip Events Conditions
12:53 AM 64.9 °F 42.1 °F 43% 29.77 in 10.0 mi Calm Calm - N/A   Clear
1:53 AM 61.0 °F 39.0 °F 44% 29.77 in 10.0 mi Calm Calm - N/A   Clear
2:53 AM 61.0 °F 46.9 °F 60% 29.77 in 10.0 mi Calm Calm - N/A   Clear
3:53 AM 59.0 °F 45.0 °F 60% 29.77 in 10.0 mi Calm Calm - N/A   Clear
4:53 AM 57.0 °F 45.0 °F 64% 29.78 in 10.0 mi Calm Calm - N/A   Clear
5:53 AM 53.1 °F 43.0 °F 69% 29.80 in 10.0 mi Calm Calm - N/A   Clear
6:53 AM 54.0 °F 44.1 °F 69% 29.81 in 10.0 mi Calm Calm - N/A   Clear
7:53 AM 60.1 °F 45.0 °F 57% 29.83 in 10.0 mi Calm Calm - N/A   Clear
8:53 AM 66.9 °F 51.1 °F 57% 29.86 in 10.0 mi WNW 5.8 mph - N/A   Clear
9:53 AM 73.9 °F 55.9 °F 53% 29.86 in 10.0 mi NNW 11.5 mph - N/A   Clear
10:53 AM 77.0 °F 55.9 °F 48% 29.85 in 10.0 mi NNW 10.4 mph - N/A   Clear
11:53 AM 81.0 °F 48.9 °F 33% 29.84 in 10.0 mi Variable 6.9 mph - N/A   Clear
12:53 PM 84.0 °F 44.1 °F 25% 29.82 in 10.0 mi North 9.2 mph - N/A   Clear
1:53 PM 86.0 °F 43.0 °F 22% 29.79 in 10.0 mi North 9.2 mph - N/A   Clear
2:53 PM 87.1 °F 32.0 °F 14% 29.78 in 10.0 mi North 8.1 mph - N/A   Clear
3:53 PM 87.1 °F 21.9 °F 9% 29.78 in 10.0 mi North 4.6 mph - N/A   Clear
4:53 PM 84.9 °F 26.1 °F 12% 29.78 in 10.0 mi WNW 3.5 mph - N/A   Clear
5:53 PM 82.0 °F 30.0 °F 15% 29.78 in 10.0 mi Calm Calm - N/A   Clear
6:53 PM 77.0 °F 34.0 °F 21% 29.80 in 10.0 mi Calm Calm - N/A   Clear
7:53 PM 73.9 °F 32.0 °F 21% 29.82 in 10.0 mi Calm Calm - N/A   Clear
8:53 PM 70.0 °F 37.9 °F 31% 29.83 in 10.0 mi Calm Calm - N/A   Clear
9:53 PM 66.9 °F 39.9 °F 37% 29.85 in 10.0 mi WSW 4.6 mph - N/A   Clear
10:53 PM 66.0 °F 37.9 °F 36% 29.86 in 10.0 mi West 5.8 mph - N/A   Clear
11:53 PM 64.9 °F 36.0 °F 34% 29.86 in 10.0 mi West 5.8 mph - N/A   Clear